Regional Weather Roundup
Issued by NWS Little Rock, AR

Home | Current Version | Previous Version | Graphics & Text | Print | Product List | Glossary On
Versions: 1 2 3 4 5 6 7 8 9 10 11 12 13 14 15 16 17 18 19 20 21 22 23 24 25 26 27 28 29 30 31 32
000
ASUS44 KLZK 260605
RWRLZK

WEATHER ROUNDUP FOR ARKANSAS
NATIONAL WEATHER SERVICE LITTLE ROCK AR
1200 AM CST SUN FEB 26 2017

NOTE: "FAIR" INDICATES FEW OR NO CLOUDS BELOW 12,000 FEET WITH NO
SIGNIFICANT WEATHER AND/OR OBSTRUCTIONS TO VISIBILITY.

ARZ001-003-010-029-260700-
NORTHWEST ARKANSAS

CITY           SKY/WX    TMP DP  RH WIND       PRES   REMARKS
FAYETTEVILLE   CLEAR     25  19  78 CALM      30.09F
6HR MIN TEMP:  25; 6HR MAX TEMP:  43;

FORT SMITH     CLEAR     34  25  69 CALM      30.11F
6HR MIN TEMP:  32; 6HR MAX TEMP:  47;

HARRISON       CLEAR     32  18  56 S6        30.09S WCI  26
6HR MIN TEMP:  31; 6HR MAX TEMP:  42;

BENTONVILLE    CLEAR     30  19  64 CALM      30.08F
6HR MIN TEMP:  30; 6HR MAX TEMP:  43;

ROGERS         CLEAR     32  21  64 SE5       30.09F WCI  27
6HR MIN TEMP:  31; 6HR MAX TEMP:  44;

SILOAM SPGS    CLEAR     30  14  51 SE5       30.08F WCI  25
6HR MIN TEMP:  30; 6HR MAX TEMP:  43;

HIGHFILL       CLEAR     30  17  58 CALM      30.08S
6HR MIN TEMP:  28; 6HR MAX TEMP:  44;

$$

ARZ004-005-016-260700-
NORTH CENTRAL ARKANSAS

CITY           SKY/WX    TMP DP  RH WIND       PRES   REMARKS
BATESVILLE     CLEAR     32  21  64 CALM      30.15S
6HR MIN TEMP:  32; 6HR MAX TEMP:  45;

FLIPPIN        CLEAR     28  18  64 CALM      30.10S
6HR MIN TEMP:  28; 6HR MAX TEMP:  45;

MTN HOME       CLEAR     32  16  51 S5        30.10S WCI  27
6HR MIN TEMP:  32; 6HR MAX TEMP:  42;

$$

ARZ040-041-260700-
WEST CENTRAL ARKANSAS

CITY           SKY/WX    TMP DP  RH WIND       PRES   REMARKS
MENA           CLEAR     32  28  86 CALM      30.11S
MOUNT IDA      CLEAR     30  24  78 CALM      30.10R HAZE
6HR MIN TEMP:  30; 6HR MAX TEMP:  47;

$$

ARZ009-017-025-026-028-260700-
NORTHEAST ARKANSAS

CITY           SKY/WX    TMP DP  RH WIND       PRES   REMARKS
CORNING        CLOUDY    32  28  86 E6        30.16F WCI  26
JONESBORO      CLEAR     30  25  81 CALM      30.15F
6HR MIN TEMP:  30; 6HR MAX TEMP:  44;

NEWPORT        CLEAR     34  27  75 MISG        N/A
6HR MIN TEMP:  34; 6HR MAX TEMP:  44;

WALNUT RIDGE   CLEAR     36  21  55 CALM      30.15S
6HR MIN TEMP:  36; 6HR MAX TEMP:  45;

BLYTHEVILLE    CLEAR     31  26  82 CALM      30.17S
6HR MIN TEMP:  30; 6HR MAX TEMP:  42;

$$

ARZ022-023-033-042-044-260700-
CENTRAL ARKANSAS

CITY           SKY/WX    TMP DP  RH WIND       PRES   REMARKS
LITTLE ROCK    PTCLDY    36  30  79 CALM      30.15S
6HR MIN TEMP:  35; 6HR MAX TEMP:  46;

N LITTLE ROCK    N/A     40  24  52 CALM      30.16F
6HR MIN TEMP:  39; 6HR MAX TEMP:  47;

JACKSONVILLE   CLEAR     32  26  77 CALM      30.13F
6HR MIN TEMP:  32; 6HR MAX TEMP:  48;

SEARCY         CLEAR     29  27  92 CALM      30.17S
6HR MIN TEMP:  29; 6HR MAX TEMP:  47;

HOT SPRINGS    CLEAR     38  24  57 E5        30.14R
6HR MIN TEMP:  34; 6HR MAX TEMP:  50;

RUSSELLVILLE   CLEAR     30  26  85 CALM      30.13R
6HR MIN TEMP:  30; 6HR MAX TEMP:  48;

CLINTON        FAIR      28  25  86 CALM      30.15S
$$

ARZ036-260700-
EAST ARKANSAS

CITY           SKY/WX    TMP DP  RH WIND       PRES   REMARKS
WEST MEMPHIS   CLEAR     34  29  82 CALM      30.15F
6HR MIN TEMP:  33; 6HR MAX TEMP:  43;

$$

ARZ050-053-066-070-073-260700-
SOUTHWEST ARKANSAS

CITY           SKY/WX    TMP DP  RH WIND       PRES   REMARKS
ARKADELPHIA    FAIR      33  31  92 CALM      30.16R
6HR MIN TEMP:  33; 6HR MAX TEMP:  49;

CAMDEN         CLEAR     34  28  80 CALM      30.16R
TEXARKANA      CLEAR     38  27  64 E3        30.12S
6HR MIN TEMP:  36; 6HR MAX TEMP:  49;

EL DORADO      CLEAR     36  31  82 CALM      30.15R
6HR MIN TEMP:  34; 6HR MAX TEMP:  49;

DE QUEEN       CLEAR     32  32 100 CALM      30.11S
6HR MIN TEMP:  31; 6HR MAX TEMP:  52;

$$

ARZ056-057-069-260700-
SOUTHEAST ARKANSAS

CITY           SKY/WX    TMP DP  RH WIND       PRES   REMARKS
PINE BLUFF     CLEAR     37  31  78 CALM      30.16S
6HR MIN TEMP:  36; 6HR MAX TEMP:  47;

STUTTGART      CLEAR     41  25  52 SE3       30.16S
6HR MIN TEMP:  41; 6HR MAX TEMP:  48;

MONTICELLO     CLEAR     38  28  67 SE3       30.16S
6HR MIN TEMP:  38; 6HR MAX TEMP:  48;


$$






USA.gov is the U.S. government's official web portal to all federal, state and local government web resources and services.